Regional Weather Roundup
Issued by NWS

Home | Current Version | Previous Version | Graphics & Text | Print | Product List | Glossary Off
Versions: 1 2 3 4 5 6 7 8 9 10 11 12 13 14 15 16 17 18 19 20 21 22 23 24 25 26 27 28 29 30 31 32 33 34 35 36 37 38 39 40 41 42 43 44 45 46 47 48 49 50

000
ASUS43 KMPX 311810
RWRMN
WEATHER ROUNDUP FOR MINNESOTA
NATIONAL WEATHER SERVICE TWIN CITIES/CHANHASSEN MN
100 PM CDT MON AUG 31 2015


NOTE: "FAIR" INDICATES FEW OR NO CLOUDS BELOW 12,000 FEET WITH NO
SIGNIFICANT WEATHER AND/OR OBSTRUCTIONS TO VISIBILITY. N/A MEANS
CURRENT SKY AND/OR WEATHER CONDITIONS ARE NOT AVAILABLE.

MNZ060>063-068>070-311900-
   Twin Cities Metro

CITY           SKY/WX    TMP DP  RH WIND       PRES   REMARKS
TWIN CITIES    PTSUNNY   81  69  67 S13G21    29.92F
6HR MIN TEMP:  66; 6HR MAX TEMP:  81;

ST PAUL        PTSUNNY   80  71  74 S17       29.92F
CRYSTAL        MOSUNNY   82  68  62 S17G24    29.90F
BLAINE         MOSUNNY   82  70  65 SW16      29.92S
LAKEVILLE      MOSUNNY   81  72  74 S9G16     29.93F
EDEN PRAIRIE   PTSUNNY   81  69  67 S13G23    29.91F
6HR MIN TEMP:  67; 6HR MAX TEMP:  81;

SOUTH ST PAUL  MOSUNNY   80  68  67 S17G25    29.93S
LAKE ELMO      CLOUDY    79  72  78 S12G18    29.94F HAZE
$$
MNZ001>005-007-008-013>017-022>024-027-028-311900-
   Northwest Minnesota

CITY           SKY/WX    TMP DP  RH WIND       PRES   REMARKS
BEMIDJI        SUNNY     81  61  49 SW13G23   29.76S
HALLOCK        PTSUNNY   75  63  64 NW16G22   29.74R
ROSEAU         PTSUNNY   72  64  78 SW12      29.73S
WARROAD        CLOUDY    68  64  88 SW8       29.73S
THIEF RVR FALL CLOUDY   N/A N/A N/A W9        29.76R
CROOKSTON      CLOUDY    73  66  78 NW7       29.76R
FOSSTON        MOSUNNY   75  61  60 SW16      29.78R
DETROIT LAKES  FAIR      79  61  53 SW10G21   29.80R
MOORHEAD       PTSUNNY   81  63  54 W14       29.77R
PARK RAPIDS    SUNNY     85  58  39 SW16G25   29.79F
MAHNOMEN       FAIR      77  63  63 SW15G21   29.78R
$$
MNZ006-009>011-018-025>026-311900-
   North Central Minnesota

CITY           SKY/WX    TMP DP  RH WIND       PRES   REMARKS
BAUDETTE       PTSUNNY   77  63  61 SW12G20   29.71R
FLAG ISLAND    CLOUDY    68  63  83 SW15      29.69S HAZE
INTL FALLS     SUNNY     80  62  54 S13G24    29.72F
6HR MIN TEMP:  64; 6HR MAX TEMP:  80;

WASKISH        SUNNY     81  64  57 SW13      29.74R
BIG FORK       SUNNY     82  64  54 S9G22     29.78S
LONGVILLE      SUNNY     79  63  57 S12G18    29.80F
GRAND RAPIDS     N/A     79  63  57 S20       29.82S
CRANE LAKE     MOSUNNY   77  63  61 S12G17    29.78F
ORR            MOSUNNY   81  59  47 S6G18     29.76F
COOK           MOSUNNY   79  61  53 S13G20    29.81S
WALKER         FAIR      80  62  53 S9G16     29.78S
$$
MNZ012-019>021-037-311900-
   Northeast Minnesota

CITY           SKY/WX    TMP DP  RH WIND       PRES   REMARKS
DULUTH         SUNNY     78  64  61 SW20      29.88F
6HR MIN TEMP:  64; 6HR MAX TEMP:  78;

ELY            MOSUNNY   79  57  47 SW10      29.82F
HIBBING        MOSUNNY   80  62  54 S10G21    29.82F
EVELETH        MOSUNNY   77  61  57 S14G20    29.85F
DULUTH HARBOR  SUNNY     81  68  65 S15       29.86F
TWO HARBORS    SUNNY     79  68  69 SW13G20   29.86F
SILVER BAY     SUNNY     77  64  65 S13G23    29.85F
GRAND MARAIS     N/A     61  58  90 SW5       29.87F
G MARAIS ARPRT SUNNY     70  59  68 S12G17    29.91F
$$
MNZ029>031-032-039>041-046>048-054>057-064-311900-
   West Central Minnesota

CITY           SKY/WX    TMP DP  RH WIND       PRES   REMARKS
FERGUS FALLS   MOSUNNY   82  66  57 S13       29.78S
WHEATON        SUNNY     82  63  51 W10       29.80S
MORRIS         SUNNY     82  66  57 S16G25    29.81S
ALEXANDRIA     SUNNY     80  67  64 S21G26    29.85S
ELBOW LAKE     FAIR      80  66  62 S15G21    29.81S
WADENA         SUNNY     81  63  54 S16G22    29.81S
GLENWOOD       SUNNY     81  68  65 S20G25    29.86R
APPLETON       SUNNY     84  64  51 SW15      29.82R
BENSON         SUNNY     82  66  57 SW16      29.84R
ORTONVILLE     SUNNY     84  63  48 S10G16    29.81R
MADISON        SUNNY     82  64  54 SW13G21   29.82R
WILLMAR        FAIR      81  70  69 S9        29.88S
$$
MNZ033>034-036-042>043-049>051-058-059-311900-
   Central Minnesota

CITY           SKY/WX    TMP DP  RH WIND       PRES   REMARKS
ST CLOUD       SUNNY     79  69  71 S17G24    29.87F
6HR MIN TEMP:  64; 6HR MAX TEMP:  80;

SAUK CENTRE    FAIR      79  67  67 S16G22    29.85S
PAYNESVILLE    SUNNY     80  67  65 SE15      29.87S
AITKIN         SUNNY     79  68  69 S14G21    29.83F
PINE RIVER     SUNNY     79  64  61 S13G20    29.85S
BRAINERD       SUNNY     80  64  58 S18G26    29.84F
STAPLES        SUNNY     81  63  54 S10G18    29.82F
LONG PRAIRIE   FAIR      79  66  65 S14G21    29.85S
LITTLE FALLS   SUNNY     81  63  54 S14G20    29.85S
LITCHFIELD     SUNNY     81  72  74 S8        29.89F
BUFFALO        SUNNY     80  67  65 S10G21    29.90F
MAPLE LAKE     SUNNY     79  70  74 S9G20     29.90S
$$
MNZ037-044-045-052-053-311900-
   East Central Minnesota

CITY           SKY/WX    TMP DP  RH WIND       PRES   REMARKS
PRINCETON      SUNNY     81  70  69 S14G23    29.90R
MORA           SUNNY     77  64  65 SW14      29.91R
CAMBRIDGE      SUNNY     82  66  57 S10G20    29.88F
RUSH CITY      MOSUNNY   79  69  71 S10G18    29.90F
MOOSE LAKE     SUNNY     77  66  69 S14       29.86F
HINCKLEY       FAIR      79  70  73 S16G22    29.89F
CLOQUET        SUNNY     77  63  61 S13       29.88S
MCGREGOR       SUNNY     79  64  61 S12       29.86S
$$
MNZ071>073-080-081-089-090-097-098-311900-
   Southwest Minnesota

CITY           SKY/WX    TMP DP  RH WIND       PRES   REMARKS
MONTEVIDEO     SUNNY     82  70  65 SW18G24   29.85S
GRANITE FALLS  SUNNY     81  69  67 S15       29.86F
CANBY          SUNNY     82  65  56 S14G23    29.84S
MARSHALL       SUNNY     81  66  61 SW17G28   29.87F
REDWOOD FALLS  SUNNY     81  68  64 S18G29    29.88S
OLIVIA         SUNNY     77  64  65 S17G25    29.87S
PIPESTONE      SUNNY     79  68  69 S16       29.89F
WINDOM         MOSUNNY   79  66  65 S17       29.92F
WORTHINGTON    MOSUNNY   77  66  69 S22       29.93S
JACKSON        MOSUNNY   79  70  73 SW14G23   29.95F
TRACY          SUNNY     80  69  69 S18G25    29.88F
SLAYTON        SUNNY     78  69  72 S17G24    29.91F
$$
MNZ065>067-074>077-082>085-091>093-311900-
   South Central Minnesota

CITY           SKY/WX    TMP DP  RH WIND       PRES   REMARKS
MANKATO        CLOUDY    79  70  73 SW17      29.94S
NEW ULM        MOSUNNY   79  70  73 S13G23    29.92R
ST JAMES       MOSUNNY   81  72  74 S13       29.93F
FAIRMONT       SUNNY     79  64  61 S17       29.94F
GLENCOE        MOSUNNY   80  71  74 S12G22    29.91S
FARIBAULT      MOSUNNY   81  72  74 S10G18    29.95F
OWATONNA       SUNNY     81  70  69 S14       29.96S
WASECA         PTSUNNY   79  70  73 S13G23    29.97S
ALBERT LEA     MOSUNNY   81  72  74 S10G17    29.97S
$$
MNZ078>079-086>088-094>096-311900-
   Southeast Minnesota

CITY           SKY/WX    TMP DP  RH WIND       PRES   REMARKS
ROCHESTER      PTSUNNY   79  70  74 S18G24    29.99F
6HR MIN TEMP:  65; 6HR MAX TEMP:  79;

RED WING       PTSUNNY   82  70  65 SW8       29.94F
STANTON        MOSUNNY   82  70  67 S13G18    29.93F
DODGE CENTER   MOSUNNY   79  70  73 S15       29.98S
WINONA         PTSUNNY   79  68  69 SW5       29.98F
AUSTIN         PTSUNNY   81  72  74 S15G22    29.98F
PRESTON        PTSUNNY   78  69  72 S13       30.01F
$$
ABBREVIATIONS USED IN REMARKS
   TC - TEMPERATURES IN CELSIUS
  WCI - WIND CHILL INDEX
   HX - HEAT INDEX
  VSB - VISIBILITY
$$



USA.gov is the U.S. government's official web portal to all federal, state and local government web resources and services.